Yaogan 39 04 zu 01 xing

operational
NORAD ID: 58141 Int'l Des: 2023-163 Owner: ZZB Country: CN Constellation: yaogan
LEOCIRCULAR

关于 Yaogan 39 04 zu 01 xing

正在加载描述...

实时位置

正在加载3D地球...

即将过境

高度历史

Altitude vs Time

uPlot chart will show altitude changes over time

两行轨道根数

1 58141U 23163A 26062.76293181 .00001945 00000-0 82496-4 0 9999
2 58141 35.0005 287.7460 0004436 136.3559 223.7506 15.22902765131499
Epoch: Mar 3, 2026 • Age: 25 hours

当前状态

高度 499.7 km
速度 7.62 km/s
星下点 -6.65°S, 106.48°E
发射日期 Oct 23, 2023
运行时间 2.3 years
类型 military

技术详情

分类 Payload
质量 300.00 kg
干质量 300.00 kg
总质量 300.00 kg
长度 2.50 m
直径 2.50 m
跨度 5.00 m
形状 Box + 2 Pan
制造商 DFHZ
阶段状态 In Orbit
所有者/国家 ZZB/CN

大型星座

Loading constellations...